CST,Max TemperatureF,Mean TemperatureF,Min TemperatureF,Max Dew PointF,MeanDew PointF,Min DewpointF,Max Humidity, Mean Humidity, Min Humidity, Max Sea Level PressureIn, Mean Sea Level PressureIn, Min Sea Level PressureIn, Max VisibilityMiles, Mean VisibilityMiles, Min VisibilityMiles, Max Wind SpeedMPH, Mean Wind SpeedMPH, Max Gust SpeedMPH,PrecipitationIn, CloudCover, Events, WindDirDegrees
2012-12-1,57,44,31,54,44,30,100,91,82,29.99,29.85,29.77,6,2,0,12,4,14,0.01,7,Fog,159
2012-12-2,60,47,33,46,39,33,100,77,53,30.04,29.94,29.79,10,4,0,15,6,18,0.00,6,Fog,126
2012-12-3,62,48,34,54,41,24,100,69,37,30.11,29.78,29.62,10,7,2,35,10,41,0.00,4,,247
2012-12-4,61,45,28,30,25,23,85,55,25,30.32,30.25,30.12,10,10,10,7,3,9,0.00,2,,336
2012-12-5,58,45,31,30,26,22,72,49,26,30.33,30.13,29.94,10,10,10,28,14,35,0.00,6,,157
2012-12-6,50,44,38,34,30,28,65,52,39,30.02,29.94,29.86,10,10,10,24,10,31,0.01,8,Rain,350
2012-12-7,45,38,30,28,26,23,82,62,41,30.02,29.97,29.92,10,10,7,13,6,16,0.00,7,,359
2012-12-8,40,35,29,31,28,25,92,76,59,30.04,29.97,29.88,10,9,7,18,7,22,0.00,8,,128
2012-12-9,38,27,15,36,18,4,92,73,54,30.17,30.00,29.85,10,9,5,31,17,40,0.01,8,Rain-Snow,287
2012-12-10,28,17,5,8,3,0,83,59,34,30.17,30.07,29.97,10,10,10,24,9,31,0.00,2,,265
2012-12-11,46,32,18,19,16,9,74,53,31,30.06,30.01,29.97,10,10,10,20,7,23,0.00,3,,182
2012-12-12,53,40,26,18,16,14,68,45,22,30.05,30.00,29.94,10,10,10,28,15,40,0.00,1,,165
2012-12-13,52,39,25,22,18,15,68,49,30,30.11,30.05,30.00,10,10,10,18,7,21,0.00,3,,153
2012-12-14,54,36,18,40,28,14,84,64,44,30.09,29.87,29.60,10,10,8,24,10,32,0.01,5,Rain,143
2012-12-15,49,45,41,45,39,30,92,86,79,29.74,29.56,29.44,10,6,2,25,13,31,0.60,8,Rain,273
2012-12-16,35,30,25,31,27,23,92,85,78,29.84,29.79,29.73,10,5,0,14,6,16,0.06,7,Fog-Snow,337
2012-12-17,32,27,22,28,25,19,92,85,78,29.82,29.73,29.63,6,3,2,13,3,14,0.00,7,,164
2012-12-18,41,34,26,31,28,24,92,78,64,29.90,29.69,29.50,10,8,3,31,8,39,0.00,4,,359
2012-12-19,38,32,26,32,29,24,92,84,76,29.95,29.83,29.75,8,3,0,35,10,41,0.81,8,Fog-Rain-Snow,22
2012-12-20,30,23,15,25,16,8,92,82,71,30.28,30.03,29.77,10,6,0,39,19,49,0.28,5,Snow,333
2012-12-21,27,17,7,18,12,5,100,84,68,30.40,30.32,30.22,10,10,7,13,5,14,0.00,1,,133
2012-12-22,39,27,15,25,16,11,84,70,56,30.20,30.07,29.96,10,9,5,13,8,15,0.00,3,,147
2012-12-23,19,13,6,14,9,3,91,82,73,30.12,30.08,30.02,9,7,4,13,8,15,0.00,5,,354
2012-12-24,18,15,11,14,8,3,84,76,67,30.33,30.18,30.03,10,9,4,21,13,25,T,7,Snow,338
2012-12-25,12,7,2,5,1,-4,88,78,67,30.57,30.45,30.34,10,10,10,20,13,23,0.00,5,,351
2012-12-26,13,6,-1,5,1,-5,87,77,66,30.44,30.33,30.22,10,10,10,12,6,13,0.00,3,,360
2012-12-27,24,17,9,19,15,5,84,79,73,30.22,30.10,30.01,10,6,0,14,5,17,0.04,7,Snow,104
2012-12-28,24,20,16,18,16,11,92,83,74,30.17,30.05,29.98,7,5,3,18,9,21,0.02,8,Snow,337
2012-12-29,26,18,10,13,10,7,84,72,60,30.29,30.24,30.13,10,9,5,15,5,17,T,3,Snow,263
2012-12-30,44,29,13,25,18,10,88,67,45,30.29,30.14,29.98,10,10,8,23,11,28,0.00,6,,193
2012-12-31,24,18,12,18,14,7,84,76,68,30.31,30.23,30.14,10,9,6,17,9,21,0.00,7,,353